Abu Dhabi, UAE

6:21 PM +04 on April 29, 2017 (GMT +0400)
Abu Dhabi

Weather History for 41216 - December, 2013

Change the Weather History Date:

Monday, December 9, 2013

  Actual Average Record
Temperature  
Mean Temperature 76 °F -  
Max Temperature 81 °F 77 °F - ()
Min Temperature 70 °F 59 °F - ()
Cooling Degree Days 10    
Growing Degree Days 26 (Base 50)    
Moisture  
Dew Point 66 °F    
Average Humidity 68    
Maximum Humidity 83    
Minimum Humidity 52    
Precipitation  
Precipitation 0.00 in 0.01 in - ()
Sea Level Pressure  
Sea Level Pressure 29.95 in    
Wind  
Wind Speed 8 mph ()    
Max Wind Speed 13 mph    
Max Gust Speed -    
Visibility 6.0 miles    
Events      
T = Trace of Precipitation, MM = Missing Value Source: Averaged Metar Reports

Daily Weather History Graph

Daily Weather History Graph

Search for Another Location

Airport or City:

Trip Planner

Search our weather history database for the weather conditions in past years. The results will help you decide how hot, cold, wet, or windy it might be!

Date:

Astronomy

Dec. 09, 2013 Rise Set
Actual Time 6:54 AM +04 5:34 PM +04
Civil Twilight 6:29 AM +04 5:59 PM +04
Nautical Twilight 6:01 AM +04 6:27 PM +04
Astronomical Twilight 5:33 AM +04 6:55 PM +04
Moon 12:08 PM +04 (12/9) No Moon Set
Length of Visible Light 11h 29m
Length of Day
10h 40m
Waxing Crescent, 46% of the Moon is Illuminated
Dec 9
Waxing Crescent
Dec 9
First Quarter
Dec 17
Full
Dec 25
Last Quarter
Jan 1
New

Hourly Weather History & Observations

Time (+04) Temp. Heat Index Dew Point Humidity Pressure Visibility Wind Dir Wind Speed Gust Speed Precip Events Conditions
12:00 AM 75.2 °F - 64.4 °F 69% 29.98 in - NW 12.7 mph - N/A   Clear
1:00 AM 74 °F - 65 °F 66% 29.98 in 6 mi NW 8.1 mph - -  
1:00 AM 73.4 °F - 64.4 °F 73% 29.98 in - NW 8.1 mph - N/A   Clear
2:00 AM 73.4 °F - 64.4 °F 73% 29.98 in - NW 8.1 mph - N/A   Clear
3:00 AM 73.4 °F - 64.4 °F 73% 29.95 in - NW 10.4 mph - N/A   Clear
4:00 AM 73 °F - 65 °F 69% 29.96 in 6 mi NW 9.2 mph - -  
4:00 AM 73.4 °F - 64.4 °F 73% 29.95 in - NW 9.2 mph - N/A   Clear
5:00 AM 73.4 °F - 64.4 °F 73% 29.95 in - NW 9.2 mph - N/A   Clear
6:00 AM 71.6 °F - 64.4 °F 78% 29.95 in - NW 6.9 mph - N/A   Clear
7:00 AM 71 °F - 65 °F 75% 29.96 in 6 mi WNW 3.5 mph - -  
7:00 AM 71.6 °F - 64.4 °F 78% 29.95 in - WNW 3.5 mph - N/A   Clear
8:00 AM 73.4 °F - 64.4 °F 73% 29.98 in - WNW 3.5 mph - N/A   Clear
9:00 AM 77.0 °F - 66.2 °F 69% 29.98 in - NW 6.9 mph - N/A   Clear
10:00 AM 79 °F - 65 °F 54% 29.99 in 6 mi NW 9.2 mph - -  
10:00 AM 78.8 °F - 66.2 °F 65% 29.98 in - NW 9.2 mph - N/A   Clear
11:00 AM 80.6 °F 82.3 °F 64.4 °F 58% 29.98 in - WNW 12.7 mph - N/A   Clear
12:00 PM 80.6 °F 82.7 °F 66.2 °F 61% 29.95 in 6.2 mi WNW 12.7 mph - N/A   Partly Cloudy
1:00 PM 81 °F - 67 °F 53% 29.93 in 6 mi NW 12.7 mph - -   Scattered Clouds
1:00 PM 80.6 °F 82.7 °F 66.2 °F 61% 29.92 in 6.2 mi NW 12.7 mph - N/A   Partly Cloudy
2:00 PM 80.6 °F 82.7 °F 66.2 °F 61% 29.89 in - WNW 12.7 mph - N/A   Clear
3:00 PM 80.6 °F 82.7 °F 66.2 °F 61% 29.89 in - NW 12.7 mph - N/A   Clear
4:00 PM 80 °F - 65 °F 52% 29.90 in 6 mi NW 12.7 mph - -  
4:00 PM 78.8 °F - 66.2 °F 65% 29.89 in - NW 12.7 mph - N/A   Clear
6:00 PM 77.0 °F - 66.2 °F 69% 29.92 in - NW 12.7 mph - N/A   Clear
7:00 PM 76 °F - 67 °F 66% 29.94 in 6 mi NW 9.2 mph - -  
7:00 PM 77.0 °F - 66.2 °F 69% 29.92 in - NW 9.2 mph - N/A   Clear
8:00 PM 75.2 °F - 66.2 °F 73% 29.95 in - NW 8.1 mph - N/A   Clear
9:00 PM 75.2 °F - 66.2 °F 73% 29.95 in - WNW 3.5 mph - N/A   Clear
10:00 PM 74 °F - 67 °F 74% 29.95 in 6 mi West 3.5 mph - -  
10:00 PM 75.2 °F - 68.0 °F 78% 29.95 in - West 3.5 mph - N/A   Clear
11:00 PM 73.4 °F - 68.0 °F 83% 29.95 in - SW 3.5 mph - N/A   Clear